Latest Weather Observations for Woolshed

IDQ60801

Issued at 2:05 pm EST Monday 28 July 2014 (issued every 30 minutes, with the page automatically refreshed every 10 minutes)

About weather observations | Map of weather stations | Latest weather observations for QLD | Other Formats
Station Details ID: 033307 Name: WOOLSHED Lat: -19.42 Lon: 146.54 Height: 556.04 m
Data from the previous 72 hours. | See also: Recent months at Woolshed
Date/Time
EST
Temp
°C
App
Temp
°C
Dew
Point
Rel
Hum
%
Delta-T
°C
Wind Press
QNH
hPa
Press
MSL
hPa
Rain
since 9 am
mm
Dir
 
Spd
km/h
Gust
km/h
Spd
kts
Gust
kts
28/02:00pm 20.1 20.1 13.6 66 3.8 NNE 6 11 3 6 1021.4 1020.1 0.0
28/01:30pm 19.9 19.6 13.4 66 3.8 NNE 7 13 4 7 1021.6 - 0.0
28/01:00pm 20.0 19.3 13.2 65 4.0 NNE 9 15 5 8 1022.1 1020.7 0.0
28/12:30pm 20.9 20.2 13.1 61 4.6 NE 9 17 5 9 1022.3 - 0.0
28/12:00pm 20.8 19.6 12.8 60 4.6 NE 11 24 6 13 1022.6 1021.2 0.0
28/11:30am 21.0 20.1 12.7 59 4.8 NE 9 17 5 9 1023.0 - 0.0
28/11:00am 20.5 19.8 13.2 63 4.3 NE 9 17 5 9 1023.3 1022.0 0.0
28/10:30am 20.1 19.6 13.8 67 3.7 E 9 17 5 9 1023.6 - 0.0
28/10:00am 19.3 18.6 13.3 68 3.5 E 9 17 5 9 1023.9 1022.5 0.0
28/09:30am 18.8 17.8 13.4 71 3.1 ENE 11 19 6 10 1024.0 - 0.0
28/09:00am 17.5 17.7 14.8 84 1.6 E 7 15 4 8 1023.9 1022.5 0.0
28/08:30am 16.7 17.0 15.1 90 1.0 E 7 13 4 7 1023.6 - 0.0
28/08:00am 16.0 17.0 15.4 96 0.4 E 4 7 2 4 1023.4 1022.1 0.0
28/07:30am 15.1 15.7 14.3 95 0.5 ENE 4 6 2 3 1023.1 - 0.0
28/07:00am 14.5 14.9 13.7 95 0.5 ENE 4 7 2 4 1022.7 1021.3 0.0
28/06:30am 14.6 14.8 14.3 98 0.2 NE 6 9 3 5 1022.4 - 0.0
28/06:00am 13.9 13.9 13.7 99 0.1 NE 6 7 3 4 1022.3 1020.9 0.0
28/05:30am 14.3 14.8 14.0 98 0.2 NE 4 7 2 4 1022.1 - 0.0
28/05:00am 14.9 15.2 14.6 98 0.2 ENE 6 11 3 6 1022.0 1020.6 0.0
28/04:30am 15.0 15.4 14.8 99 0.1 NE 6 9 3 5 1021.8 - 0.0
28/04:00am 14.7 14.9 14.2 97 0.3 NE 6 9 3 5 1021.8 1020.5 0.0
28/03:30am 15.1 15.5 14.8 98 0.2 NE 6 9 3 5 1021.8 - 0.0
28/03:00am 15.3 15.8 15.1 99 0.1 NE 6 11 3 6 1022.0 1020.6 0.0
28/02:30am 15.6 16.3 15.6 100 0.0 NE 6 11 3 6 1022.2 - 0.0
28/02:00am 16.0 17.2 16.0 100 0.0 NE 4 11 2 6 1022.4 1021.0 0.0
28/01:30am 16.2 17.1 16.2 100 0.0 NE 6 7 3 4 1022.7 - 0.0
28/01:00am 16.4 17.4 16.4 100 0.0 NE 6 11 3 6 1022.9 1021.5 0.0
28/12:30am 16.6 17.5 16.6 100 0.0 NE 7 15 4 8 1023.2 - 0.0
28/12:00am 16.6 17.5 16.6 100 0.0 ENE 7 17 4 9 1023.5 1022.2 0.0
 
Date/Time
EST
Temp
°C
App
Temp
°C
Dew
Point
Rel
Hum
%
Delta-T
°C
Wind Press
QNH
hPa
Press
MSL
hPa
Rain
since 9 am
mm
Dir
 
Spd
km/h
Gust
km/h
Spd
kts
Gust
kts
27/11:30pm 16.9 17.1 16.7 99 0.1 ENE 11 20 6 11 1023.9 - 0.0
27/11:00pm 16.9 17.5 16.7 99 0.1 ENE 9 15 5 8 1023.7 1022.4 0.0
27/10:30pm 17.1 17.7 16.9 99 0.1 ENE 9 19 5 10 1023.9 - 0.0
27/10:00pm 17.1 17.7 16.9 99 0.1 NE 9 20 5 11 1023.9 1022.5 0.0
27/09:30pm 17.1 18.1 16.9 99 0.1 NE 7 20 4 11 1023.9 - 0.0
27/09:00pm 17.0 18.0 16.8 99 0.1 NE 7 19 4 10 1023.7 1022.4 0.0
27/08:30pm 17.0 17.6 16.8 99 0.1 NNE 9 17 5 9 1023.6 - 0.0
27/08:00pm 17.0 17.9 16.7 98 0.2 NNE 7 15 4 8 1023.4 1022.1 0.0
27/07:30pm 16.6 17.3 16.0 96 0.4 NNE 7 15 4 8 1023.0 - 0.0
27/07:00pm 16.8 17.5 15.5 92 0.8 N 6 13 3 7 1022.6 1021.2 0.0
27/06:30pm 17.4 17.8 15.4 88 1.2 NNE 7 11 4 6 1022.2 - 0.0
27/06:00pm 17.7 18.2 15.1 85 1.5 NNE 6 11 3 6 1021.8 1020.5 0.0
27/05:30pm 18.9 19.6 16.0 83 1.8 NNE 7 13 4 7 1021.6 - 0.0
27/05:00pm 20.2 20.7 15.6 75 2.8 N 7 13 4 7 1021.4 1020.1 0.0
27/04:30pm 22.1 22.5 13.7 59 5.0 E 4 9 2 5 1021.3 - 0.0
27/04:00pm 22.4 23.0 14.3 60 4.9 ESE 4 11 2 6 1021.2 1019.8 0.0
27/03:30pm 22.4 22.6 14.8 62 4.6 E 7 13 4 7 1021.3 - 0.0
27/03:00pm 21.9 21.9 14.3 62 4.5 E 7 15 4 8 1021.5 1020.2 0.0
27/02:30pm 22.9 23.6 15.5 63 4.5 E 6 11 3 6 1021.6 - 0.0
27/02:00pm 22.1 22.3 14.7 63 4.5 E 7 17 4 9 1022.1 1020.7 0.0
27/01:30pm 22.2 22.7 15.1 64 4.3 ENE 6 15 3 8 1022.3 - 0.0
27/01:00pm 22.0 22.8 16.3 70 3.5 SE 7 15 4 8 1022.7 1021.3 0.0
27/12:30pm 21.0 21.5 15.5 71 3.4 SE 7 19 4 10 1023.2 - 0.0
27/12:00pm 20.9 21.0 15.4 71 3.3 E 9 19 5 10 1023.5 1022.2 0.0
27/11:30am 21.3 21.6 16.0 72 3.3 E 9 17 5 9 1023.9 - 0.0
27/11:00am 20.5 20.7 15.7 74 2.9 E 9 17 5 9 1024.2 1022.8 0.0
27/10:30am 20.1 20.7 15.7 76 2.7 E 7 13 4 7 1024.4 - 0.0
27/10:00am 19.6 20.2 15.9 79 2.2 ESE 7 15 4 8 1024.6 1023.3 0.0
27/09:30am 18.5 18.8 15.0 80 2.1 ESE 7 20 4 11 1024.7 - 0.0
27/09:00am 18.3 19.0 15.7 85 1.6 ESE 6 11 3 6 1024.6 1023.3 0.0
27/08:30am 17.3 17.8 15.5 89 1.1 ESE 7 17 4 9 1024.3 - 0.0
27/08:00am 16.7 17.1 15.4 92 0.8 ESE 7 11 4 6 1024.0 1022.6 0.0
27/07:30am 15.4 16.0 15.2 99 0.1 ESE 6 9 3 5 1023.6 - 0.0
27/07:00am 14.4 15.0 14.2 99 0.1 SE 4 7 2 4 1023.3 1022.0 0.0
27/06:30am 14.6 15.3 14.6 100 0.0 SE 4 9 2 5 1022.9 - 0.0
27/06:00am 13.9 14.8 13.9 100 0.0 ESE 2 6 1 3 1022.7 1021.3 0.0
27/05:30am 13.8 14.6 13.8 100 0.0 SE 2 6 1 3 1022.6 - 0.0
27/05:00am 13.3 14.3 13.1 99 0.1 CALM 0 0 0 0 1022.4 1021.0 0.0
27/04:30am 14.4 15.8 14.4 100 0.0 CALM 0 0 0 0 1022.2 - 0.0
27/04:00am 14.2 15.5 14.0 99 0.1 CALM 0 2 0 1 1022.3 1020.9 0.0
27/03:30am 14.4 15.1 14.4 100 0.0 SSE 4 7 2 4 1022.6 - 0.0
27/03:00am 14.5 15.5 14.3 99 0.1 S 2 2 1 1 1022.7 1021.3 0.0
27/02:30am 15.1 16.3 14.8 98 0.2 SE 2 9 1 5 1022.9 - 0.0
27/02:00am 15.1 16.3 14.8 98 0.2 S 2 6 1 3 1023.4 1022.1 0.0
27/01:30am 15.3 16.7 15.3 100 0.0 SSE 2 6 1 3 1024.1 - 0.0
27/01:00am 14.4 15.4 14.2 99 0.1 S 2 6 1 3 1024.3 1022.9 0.0
27/12:30am 14.2 15.4 13.9 98 0.2 CALM 0 0 0 0 1024.5 - 0.0
27/12:00am 14.5 15.7 13.9 96 0.3 CALM 0 0 0 0 1024.7 1023.4 0.0
 
Date/Time
EST
Temp
°C
App
Temp
°C
Dew
Point
Rel
Hum
%
Delta-T
°C
Wind Press
QNH
hPa
Press
MSL
hPa
Rain
since 9 am
mm
Dir
 
Spd
km/h
Gust
km/h
Spd
kts
Gust
kts
26/11:30pm 15.1 16.4 14.1 94 0.6 CALM 0 2 0 1 1024.8 - 0.0
26/11:00pm 16.1 16.8 14.6 91 0.9 NE 4 6 2 3 1024.8 1023.5 0.0
26/10:30pm 16.6 17.2 15.3 92 0.8 ENE 6 9 3 5 1024.9 - 0.0
26/10:00pm 15.9 16.8 15.1 95 0.5 NE 4 6 2 3 1025.0 1023.7 0.0
26/09:30pm 15.5 16.4 15.2 98 0.2 ENE 4 6 2 3 1025.2 - 0.0
26/09:00pm 15.6 17.3 15.1 97 0.3 CALM 0 0 0 0 1025.2 1023.9 0.0
26/08:30pm 16.2 18.0 15.4 95 0.5 CALM 0 0 0 0 1025.0 - 0.0
26/08:00pm 16.7 18.6 15.7 94 0.6 CALM 0 0 0 0 1025.1 1023.8 0.0
26/07:30pm 17.0 18.6 16.0 94 0.6 NE 2 4 1 2 1024.7 - 0.0
26/07:00pm 17.1 18.3 16.0 93 0.7 NNE 4 9 2 5 1024.2 1022.8 0.0
26/06:30pm 17.5 18.4 16.2 92 0.8 NNE 6 9 3 5 1023.9 - 0.0
26/06:00pm 17.5 18.4 16.2 92 0.8 N 6 11 3 6 1023.5 1022.2 0.0
26/05:30pm 18.6 19.7 16.6 88 1.2 NNE 6 7 3 4 1023.3 - 0.0
26/05:00pm 19.3 20.4 16.7 85 1.6 NNE 6 11 3 6 1023.1 1021.8 0.0
26/04:30pm 19.8 20.7 16.6 82 2.0 NNE 7 11 4 6 1022.8 - 0.0
26/04:00pm 20.4 20.9 16.6 79 2.3 NNE 9 15 5 8 1022.6 1021.2 0.0
26/03:30pm 20.9 21.4 16.5 76 2.7 NNE 9 17 5 9 1022.5 - 0.0
26/03:00pm 21.6 22.0 15.2 67 3.9 NNE 7 15 4 8 1022.5 1021.1 0.0
26/02:30pm 21.6 22.4 15.9 70 3.5 NE 6 9 3 5 1022.7 - 0.0
26/02:00pm 21.6 22.2 15.4 68 3.8 ENE 6 11 3 6 1023.1 1021.8 0.0
26/01:30pm 21.4 22.1 15.7 70 3.5 N 6 9 3 5 1023.4 - 0.0
26/01:00pm 21.1 21.7 15.9 72 3.2 E 7 13 4 7 1024.1 1022.7 0.0
26/12:30pm 20.8 21.4 15.4 71 3.3 E 6 11 3 6 1024.4 - 0.0
26/12:00pm 20.3 20.6 15.1 72 3.1 ENE 7 13 4 7 1025.0 1023.7 0.0
26/11:30am 19.8 20.1 15.0 74 2.9 ENE 7 15 4 8 1025.2 - 0.0
26/11:00am 20.6 21.3 16.0 75 2.8 ESE 7 13 4 7 1025.5 1024.2 0.0
26/10:30am 19.5 20.0 15.6 78 2.4 ESE 7 11 4 6 1025.9 - 0.0
26/10:00am 19.4 19.8 15.3 77 2.5 ENE 7 13 4 7 1025.9 1024.5 0.0
26/09:30am 18.8 19.5 15.5 81 2.0 NNE 6 11 3 6 1025.9 - 0.0
26/09:00am 17.8 18.4 15.2 85 1.5 ENE 6 9 3 5 1025.8 1024.4 0.0
26/08:30am 17.6 18.7 15.6 88 1.2 E 4 9 2 5 1025.5 - 0.0
26/08:00am 17.1 17.7 15.4 90 1.0 NE 6 13 3 7 1025.4 1024.1 0.0
26/07:30am 16.4 17.9 15.8 96 0.4 NE 2 4 1 2 1025.0 - 0.0
26/07:00am 15.6 16.5 15.0 96 0.4 NE 4 7 2 4 1024.8 1023.5 0.0
26/06:30am 15.3 15.7 14.7 96 0.4 NE 6 9 3 5 1024.4 - 0.0
26/06:00am 15.1 15.7 14.3 95 0.5 NE 4 7 2 4 1024.1 1022.7 0.0
26/05:30am 15.6 16.3 14.6 94 0.6 NE 4 9 2 5 1024.0 - 0.0
26/05:00am 15.4 15.6 14.8 96 0.4 ENE 7 13 4 7 1023.7 1022.4 0.0
26/04:30am 15.2 16.0 14.9 98 0.2 NE 4 9 2 5 1023.6 - 0.0
26/04:00am 15.4 16.2 14.9 97 0.3 NE 4 7 2 4 1023.7 1022.4 0.0
26/03:30am 16.0 16.4 15.4 96 0.4 NE 7 11 4 6 1023.6 - 0.0
26/03:00am 16.0 16.6 15.2 95 0.5 NE 6 9 3 5 1023.9 1022.5 0.0
26/02:30am 16.2 16.7 15.1 93 0.7 NE 6 11 3 6 1023.9 - 0.0
26/02:00am 16.3 16.7 15.2 93 0.7 ENE 7 15 4 8 1024.0 1022.6 0.0
26/01:30am 16.5 16.5 15.2 92 0.8 ENE 9 17 5 9 1024.2 - 0.0
26/01:00am 16.6 16.6 15.1 91 0.9 ENE 9 19 5 10 1024.6 1023.3 0.0
26/12:30am 16.6 16.7 15.5 93 0.7 NE 9 19 5 10 1024.9 - 0.0
26/12:00am 16.6 16.6 15.3 92 0.8 ENE 9 17 5 9 1024.9 1023.6 0.0
 
Date/Time
EST
Temp
°C
App
Temp
°C
Dew
Point
Rel
Hum
%
Delta-T
°C
Wind Press
QNH
hPa
Press
MSL
hPa
Rain
since 9 am
mm
Dir
 
Spd
km/h
Gust
km/h
Spd
kts
Gust
kts
25/11:30pm 16.6 17.0 15.3 92 0.8 NE 7 13 4 7 1025.1 - 0.0
25/11:00pm 16.5 16.8 15.0 91 0.9 NE 7 13 4 7 1025.3 1024.0 0.0
25/10:30pm 16.9 17.2 14.9 88 1.2 NNE 7 15 4 8 1025.5 - 0.0
25/10:00pm 16.7 17.2 15.1 90 0.9 NE 6 15 3 8 1025.6 1024.3 0.0
25/09:30pm 16.9 17.0 15.6 92 0.8 NE 9 22 5 12 1025.3 - 0.0
25/09:00pm 16.7 17.3 15.7 94 0.6 NE 7 13 4 7 1025.0 1023.7 0.0
25/08:30pm 16.4 17.5 15.6 95 0.5 NE 4 9 2 5 1024.9 - 0.0
25/08:00pm 16.3 17.4 15.5 95 0.5 NNE 4 6 2 3 1024.6 1023.3 0.0
25/07:30pm 16.6 17.7 15.5 93 0.7 NNE 4 7 2 4 1024.2 - 0.0
25/07:00pm 16.8 17.5 15.5 92 0.8 NNE 6 9 3 5 1023.7 1022.4 0.0
25/06:30pm 16.8 17.2 14.8 88 1.2 NNE 6 7 3 4 1023.3 - 0.0
25/06:00pm 16.9 17.0 14.0 83 1.7 NNE 6 11 3 6 1023.1 1021.8 0.0
25/05:30pm 17.4 18.1 14.5 83 1.7 N 4 9 2 5 1022.8 - 0.0
25/05:00pm 18.4 19.5 15.5 83 1.7 N 4 9 2 5 1022.6 1021.2 0.0
25/04:30pm 19.0 20.1 15.7 81 2.0 N 4 7 2 4 1022.4 - 0.0
25/04:00pm 19.6 20.0 15.3 76 2.6 NE 7 15 4 8 1022.0 1020.6 0.0
25/03:30pm 19.5 20.6 15.6 78 2.4 NNE 4 7 2 4 1021.7 - 0.0
25/03:00pm 19.7 20.2 15.1 75 2.8 NNE 6 9 3 5 1021.6 1020.3 0.0
25/02:30pm 20.0 20.4 14.8 72 3.1 NE 6 13 3 7 1021.7 - 0.0

Other Formats:

Comma delimited format used in spreadsheet applications
http://www.bom.gov.au/fwo/IDQ60801/IDQ60801.95293.axf

JavaScript Object Notation format (JSON) in row-major order
http://www.bom.gov.au/fwo/IDQ60801/IDQ60801.95293.json